• In Portugal
  • List of Countries
  • For 7 days
  • Water Temperature
  • Satellite Maps
  • Weather Map
  • Weather Widgets
  • user-avatar
    Login

    Hourly Weather Andora

    Today, 23 May, Wednesday

    Time Temperature Precipitation Wind Pressure Humidity
    00:00 +7°C° 0 mm 1 mps 624 mmHg 90%
    01:00 +7°C° 0.1 mm 1 mps 624 mmHg 91%
    02:00 +7°C° 0.1 mm 1 mps 624 mmHg 91%
    03:00 +7°C° 0.1 mm 1 mps 624 mmHg 91%
    04:00 +8°C° 0 mm 1 mps 625 mmHg 89%
    05:00 +8°C° 0 mm 1 mps 625 mmHg 87%
    06:00 +9°C° 0 mm 1 mps 625 mmHg 84%
    07:00 +10°C° 0.2 mm 1 mps 626 mmHg 79%
    08:00 +12°C° 0.2 mm 1 mps 627 mmHg 75%
    09:00 +13°C° 0.2 mm 1 mps 627 mmHg 70%
    10:00 +14°C° 0.6 mm 1 mps 627 mmHg 68%
    11:00 +14°C° 0.6 mm 2 mps 628 mmHg 66%
    12:00 +15°C° 0.6 mm 2 mps 628 mmHg 63%
    13:00 +15°C° 0.4 mm 2 mps 628 mmHg 63%
    14:00 +15°C° 0.4 mm 2 mps 627 mmHg 64%
    15:00 +15°C° 0.4 mm 2 mps 627 mmHg 64%
    16:00 +14°C° 0.8 mm 2 mps 627 mmHg 69%
    17:00 +14°C° 0.8 mm 1 mps 627 mmHg 75%
    18:00 +13°C° 0.8 mm 1 mps 626 mmHg 81%
    19:00 +11°C° 0.2 mm 1 mps 626 mmHg 84%
    20:00 +10°C° 0.2 mm 1 mps 626 mmHg 87%
    21:00 +9°C° 0.2 mm 1 mps 626 mmHg 91%
    22:00 +9°C° 0.3 mm 1 mps 626 mmHg 91%
    23:00 +9°C° 0.3 mm 1 mps 626 mmHg 91%

    Tomorrow, 24 May, Thursday

    Time Temperature Precipitation Wind Pressure Humidity
    00:00 +8°C° 0.3 mm 1 mps 625 mmHg 91%
    01:00 +8°C° 0.1 mm 1 mps 625 mmHg 91%
    02:00 +8°C° 0.1 mm 1 mps 625 mmHg 90%
    03:00 +8°C° 0.1 mm 1 mps 625 mmHg 89%
    04:00 +8°C° 0 mm 1 mps 625 mmHg 87%
    05:00 +9°C° 0 mm 1 mps 625 mmHg 85%
    06:00 +10°C° 0 mm 1 mps 626 mmHg 83%
    07:00 +12°C° 0 mm 1 mps 627 mmHg 75%
    08:00 +14°C° 0 mm 1 mps 627 mmHg 67%
    09:00 +16°C° 0 mm 2 mps 628 mmHg 59%
    10:00 +17°C° 0.1 mm 2 mps 628 mmHg 56%
    11:00 +17°C° 0.1 mm 3 mps 629 mmHg 53%
    12:00 +18°C° 0.1 mm 3 mps 629 mmHg 50%
    13:00 +18°C° 0.2 mm 3 mps 628 mmHg 50%
    14:00 +19°C° 0.2 mm 3 mps 628 mmHg 50%
    15:00 +19°C° 0.2 mm 3 mps 628 mmHg 50%
    16:00 +18°C° 0.1 mm 3 mps 628 mmHg 55%
    17:00 +17°C° 0.1 mm 2 mps 627 mmHg 60%
    18:00 +16°C° 0.1 mm 2 mps 627 mmHg 65%
    19:00 +14°C° 0 mm 2 mps 626 mmHg 69%
    20:00 +12°C° 0 mm 1 mps 626 mmHg 73%
    21:00 +10°C° 0 mm 1 mps 626 mmHg 78%
    22:00 +10°C° 0 mm 1 mps 625 mmHg 74%
    23:00 +10°C° 0 mm 1 mps 625 mmHg 70%

    Day after tomorrow, 25 May, Friday

    Time Temperature Precipitation Wind Pressure Humidity
    00:00 +8°C° 0 mm 2 mps 625 mmHg 67%
    01:00 +8°C° 0 mm 2 mps 625 mmHg 65%
    02:00 +8°C° 0 mm 2 mps 625 mmHg 63%
    03:00 +8°C° 0 mm 2 mps 624 mmHg 60%
    04:00 +9°C° 0 mm 2 mps 625 mmHg 61%
    05:00 +10°C° 0 mm 2 mps 625 mmHg 62%
    06:00 +10°C° 0 mm 2 mps 625 mmHg 62%
    07:00 +14°C° 0.1 mm 2 mps 626 mmHg 56%
    08:00 +16°C° 0.1 mm 3 mps 627 mmHg 51%
    09:00 +18°C° 0.1 mm 3 mps 628 mmHg 45%
    10:00 +19°C° 0 mm 4 mps 628 mmHg 42%
    11:00 +20°C° 0 mm 4 mps 628 mmHg 40%
    12:00 +21°C° 0 mm 5 mps 628 mmHg 37%
    13:00 +21°C° 0 mm 5 mps 628 mmHg 38%
    14:00 +21°C° 0 mm 5 mps 628 mmHg 38%
    15:00 +21°C° 0 mm 5 mps 627 mmHg 38%
    16:00 +19°C° 0 mm 4 mps 626 mmHg 43%
    17:00 +18°C° 0 mm 4 mps 626 mmHg 49%
    18:00 +16°C° 0 mm 3 mps 625 mmHg 54%
    19:00 +13°C° 0 mm 3 mps 625 mmHg 56%
    20:00 +12°C° 0 mm 2 mps 624 mmHg 58%
    21:00 +10°C° 0 mm 2 mps 624 mmHg 61%
    22:00 +9°C° 0 mm 2 mps 624 mmHg 61%
    23:00 +9°C° 0 mm 2 mps 624 mmHg 61%

    26 May, Saturday

    Time Temperature Precipitation Wind Pressure Humidity
    00:00 +8°C° 0 mm 2 mps 624 mmHg 61%
    01:00 +8°C° 0 mm 2 mps 624 mmHg 64%
    02:00 +8°C° 0 mm 2 mps 623 mmHg 67%
    03:00 +8°C° 0 mm 2 mps 623 mmHg 70%
    04:00 +9°C° 0 mm 2 mps 624 mmHg 70%
    05:00 +10°C° 0 mm 2 mps 624 mmHg 69%
    06:00 +12°C° 0 mm 2 mps 624 mmHg 68%
    07:00 +13°C° 0 mm 3 mps 625 mmHg 61%
    08:00 +15°C° 0 mm 4 mps 626 mmHg 54%
    09:00 +18°C° 0 mm 4 mps 627 mmHg 47%
    10:00 +19°C° 0 mm 4 mps 627 mmHg 45%
    11:00 +20°C° 0 mm 5 mps 628 mmHg 42%
    12:00 +21°C° 0 mm 5 mps 628 mmHg 39%
    13:00 +21°C° 0 mm 5 mps 628 mmHg 41%
    14:00 +20°C° 0 mm 4 mps 627 mmHg 43%
    15:00 +20°C° 0 mm 4 mps 627 mmHg 45%
    16:00 +18°C° 0 mm 4 mps 627 mmHg 50%
    17:00 +17°C° 0 mm 3 mps 626 mmHg 56%
    18:00 +16°C° 0 mm 3 mps 626 mmHg 61%
    19:00 +13°C° 0 mm 3 mps 625 mmHg 66%
    20:00 +13°C° 0 mm 2 mps 625 mmHg 70%
    21:00 +10°C° 0 mm 2 mps 624 mmHg 75%
    22:00 +9°C° 0 mm 2 mps 624 mmHg 74%
    23:00 +9°C° 0 mm 2 mps 624 mmHg 73%

    27 May, Sunday

    Time Temperature Precipitation Wind Pressure Humidity
    00:00 +9°C° 0 mm 2 mps 624 mmHg 72%
    01:00 +8°C° 0 mm 2 mps 624 mmHg 74%
    02:00 +9°C° 0 mm 1 mps 624 mmHg 75%
    03:00 +9°C° 0 mm 1 mps 624 mmHg 76%
    04:00 +10°C° 0 mm 1 mps 624 mmHg 74%
    05:00 +11°C° 0 mm 1 mps 625 mmHg 72%
    06:00 +12°C° 0 mm 1 mps 625 mmHg 71%
    07:00 +14°C° 0 mm 1 mps 626 mmHg 62%
    08:00 +16°C° 0 mm 2 mps 627 mmHg 53%
    09:00 +19°C° 0 mm 2 mps 628 mmHg 45%
    10:00 +19°C° 0 mm 2 mps 628 mmHg 44%
    11:00 +20°C° 0 mm 3 mps 628 mmHg 43%
    12:00 +21°C° 0 mm 3 mps 629 mmHg 43%
    13:00 +20°C° 0.5 mm 3 mps 628 mmHg 47%
    14:00 +20°C° 0.5 mm 3 mps 628 mmHg 51%
    15:00 +19°C° 0.5 mm 3 mps 628 mmHg 55%
    16:00 +18°C° 0.7 mm 2 mps 627 mmHg 61%
    17:00 +17°C° 0.7 mm 2 mps 626 mmHg 66%
    18:00 +16°C° 0.7 mm 2 mps 626 mmHg 71%
    19:00 +15°C° 0.3 mm 1 mps 625 mmHg 75%
    20:00 +13°C° 0.3 mm 1 mps 625 mmHg 78%
    21:00 +12°C° 0.3 mm 1 mps 625 mmHg 81%
    22:00 +12°C° 0.8 mm 1 mps 625 mmHg 83%
    23:00 +11°C° 0.8 mm 1 mps 624 mmHg 85%

    28 May, Monday

    Time Temperature Precipitation Wind Pressure Humidity
    00:00 +11°C° 0.8 mm 1 mps 624 mmHg 86%
    01:00 +11°C° 1.5 mm 1 mps 624 mmHg 88%
    02:00 +10°C° 1.5 mm 1 mps 624 mmHg 89%
    03:00 +10°C° 1.5 mm 1 mps 623 mmHg 90%
    04:00 +10°C° 1.6 mm 1 mps 623 mmHg 91%
    05:00 +11°C° 1.6 mm 1 mps 623 mmHg 91%
    06:00 +11°C° 1.6 mm 1 mps 623 mmHg 92%
    07:00 +11°C° 0.8 mm 1 mps 624 mmHg 90%
    08:00 +12°C° 0.8 mm 2 mps 624 mmHg 88%
    09:00 +13°C° 0.8 mm 2 mps 624 mmHg 86%
    10:00 +13°C° 0.9 mm 2 mps 624 mmHg 83%
    11:00 +13°C° 0.9 mm 3 mps 624 mmHg 81%
    12:00 +14°C° 0.9 mm 3 mps 624 mmHg 78%
    13:00 +13°C° 1.1 mm 3 mps 624 mmHg 78%
    14:00 +13°C° 1.1 mm 3 mps 624 mmHg 78%
    15:00 +14°C° 1.1 mm 2 mps 624 mmHg 78%
    16:00 +14°C° 0.5 mm 2 mps 624 mmHg 80%
    17:00 +14°C° 0.5 mm 2 mps 624 mmHg 82%
    18:00 +13°C° 0.5 mm 2 mps 624 mmHg 84%
    19:00 +12°C° 0.1 mm 1 mps 623 mmHg 88%
    20:00 +11°C° 0.1 mm 1 mps 623 mmHg 92%
    21:00 +9°C° 0.1 mm 1 mps 623 mmHg 96%
    22:00 +9°C° 0 mm 1 mps 623 mmHg 96%
    23:00 +8°C° 0 mm 0 mps 623 mmHg 96%
    Show more